Ukiah, CA

8:47 AM PST on February 06, 2016 (GMT -0800)
Ukiah Municipal

Weather History for KUKI - January, 2012

Change the Weather History Date:

Sunday, January 29, 2012

  Actual Average Record
Temperature  
Mean Temperature 48 °F 48 °F  
Max Temperature 65 °F 58 °F 77 °F (1931)
Min Temperature 31 °F 38 °F 19 °F (1957)
Degree Days  
Heating Degree Days 17 17  
Month to date heating degree days 543 536  
Since 1 July heating degree days 1734 1766  
Cooling Degree Days 0 0  
Month to date cooling degree days 0 0  
Year to date cooling degree days 0 0  
Moisture  
Dew Point 36 °F    
Average Humidity 66    
Maximum Humidity 100    
Minimum Humidity 31    
Precipitation  
Precipitation 0.00 in 0.11 in 2.18 in (1968)
Month to date precipitation 2.16 6.77  
Year to date precipitation 2.16 6.77  
Since 1 July precipitation 8.88  
Snow  
Snow 0.00 in - - ()
Month to date snowfall 0.0  
Since 1 July snowfall 0.0  
Snow Depth 0.00 in    
Sea Level Pressure  
Sea Level Pressure 30.23 in    
Wind  
Wind Speed 1 mph (NNW)    
Max Wind Speed 13 mph    
Max Gust Speed 18 mph    
Visibility 10 miles    
Events      
T = Trace of Precipitation, MM = Missing Value Source: NWS Daily Summary

Daily Weather History Graph

Daily Weather History Graph

Search for Another Location

Airport or City:

Trip Planner

Search our weather history database for the weather conditions in past years. The results will help you decide how hot, cold, wet, or windy it might be!

Date:

Astronomy

Jan. 29, 2012 Rise Set
Actual Time 7:22 AM PST 5:29 PM PST
Civil Twilight 6:53 AM PST 5:58 PM PST
Nautical Twilight 6:21 AM PST 6:30 PM PST
Astronomical Twilight 5:50 AM PST 7:02 PM PST
Moon 10:19 AM PST (1/29) No Moon Set
Length of Visible Light 11h 04m
Length of Day
10h 07m
Waxing Crescent, 37% of the Moon is Illuminated
Jan 29
Waxing Crescent
Jan 30
First Quarter
Feb 7
Full
Feb 14
Last Quarter
Feb 21
New

Hourly Weather History & Observations

Time (PST) Temp. Dew Point Humidity Pressure Visibility Wind Dir Wind Speed Gust Speed Precip Events Conditions
12:56 AM 37.9 °F 36.0 °F 93% 30.31 in 6.0 mi Calm Calm - N/A   Clear
1:56 AM 35.1 °F 34.0 °F 96% 30.30 in 10.0 mi Calm Calm - N/A   Clear
2:56 AM 37.0 °F 35.1 °F 93% 30.30 in 9.0 mi Calm Calm - N/A   Clear
3:56 AM 34.0 °F 33.1 °F 96% 30.29 in 10.0 mi Calm Calm - N/A   Clear
4:56 AM 35.1 °F 34.0 °F 96% 30.27 in 9.0 mi Calm Calm - N/A   Clear
5:56 AM 32.0 °F 30.9 °F 96% 30.29 in 10.0 mi Calm Calm - N/A   Clear
6:56 AM 33.1 °F 32.0 °F 96% 30.30 in 10.0 mi Calm Calm - N/A   Clear
7:56 AM 32.0 °F 30.2 °F 93% 30.31 in 10.0 mi Calm Calm - N/A   Clear
8:56 AM 37.9 °F 35.1 °F 89% 30.29 in 10.0 mi Calm Calm - N/A   Clear
9:56 AM 43.0 °F 37.0 °F 80% 30.29 in 10.0 mi Calm Calm - N/A   Clear
10:56 AM 50.0 °F 37.0 °F 61% 30.29 in 10.0 mi NNW 4.6 mph - N/A   Clear
11:56 AM 55.4 °F 35.6 °F 47% 30.27 in 10.0 mi Calm Calm - N/A   Clear
12:56 PM 59.0 °F 35.1 °F 41% 30.23 in 10.0 mi Calm Calm - N/A   Clear
1:56 PM 62.6 °F 35.6 °F 37% 30.19 in 10.0 mi Calm Calm - N/A   Clear
2:56 PM 64.4 °F 33.8 °F 32% 30.17 in 10.0 mi Calm Calm - N/A   Clear
3:56 PM 62.1 °F 42.1 °F 48% 30.15 in 10.0 mi Calm Calm - N/A   Clear
4:56 PM 57.9 °F 43.0 °F 58% 30.16 in 10.0 mi Calm Calm - N/A   Clear
5:56 PM 54.0 °F 42.1 °F 64% 30.14 in 10.0 mi Calm Calm - N/A   Clear
6:56 PM 50.0 °F 41.0 °F 71% 30.18 in 10.0 mi South 5.8 mph - N/A   Clear
7:56 PM 55.0 °F 32.0 °F 42% 30.19 in 10.0 mi North 12.7 mph 18.4 mph N/A   Clear
8:56 PM 48.9 °F 36.0 °F 61% 30.19 in 10.0 mi Calm Calm - N/A   Clear
9:56 PM 48.0 °F 37.0 °F 66% 30.17 in 10.0 mi Calm Calm - N/A   Clear
10:56 PM 48.0 °F 37.0 °F 66% 30.16 in 8.0 mi Calm Calm - N/A   Partly Cloudy
11:56 PM 46.0 °F 37.9 °F 73% 30.16 in 10.0 mi Calm Calm - N/A   Clear